Home   Weather   Pueblo   Past weeks
Flag for USA

Past Weather in Pueblo, Colorado, USA — Yesterday and Last 2 Weeks

Now
53 °F

Clear.


Feels Like: 53 °F
Forecast: 71 / 50 °F
Wind: No wind

Location: Pueblo Memorial Airport

Current Time: Apr 25, 2019 at 12:35:34 am

Latest Report: Apr 24, 2019 at 11:53 pm


Visibility: 10 mi

Pressure: 29.78 "Hg (25.08 "Hg at 1430m altitude)

Humidity: 47%

Dew Point: 33 °F

Location of PuebloLocation

Past Weather in Pueblo — Graph

°F

Pueblo Temperature Yesterday

Maximum temperature yesterday: 78 °F (at 2:53 pm)
Minimum temperature yesterday: 37 °F (at 3:53 am)
Average temperature yesterday: 59 °F

High & Low Weather Summary for the Past Weeks

 TemperatureHumidityPressure
High85 °F (Apr 20, 2:53 pm)100% (Apr 14, 4:53 am)30.22 "Hg (Apr 14, 4:53 am)
Low26 °F (Apr 11, 6:53 am)9% (Apr 20, 11:53 am)29.18 "Hg (Apr 10, 1:53 pm)
Average52 °F49%29.81 "Hg
* Reported Apr 9 10:53 pm — Apr 24 10:53 pm, Pueblo. Weather by CustomWeather, © 2019

Note: Actual official high and low records may vary slightly from our data, if they occured in-between our weather recording intervals... More about our weather records

Advertising

Pueblo Weather History for the Previous 24 Hours

Scroll right to see more
 ConditionsComfort  
Time TempWeatherWind HumidityBarometerVisibility
10:53 pm
Wed, Apr 24
55 °FPassing clouds.3 mph44%29.78 "Hg10 mi
9:53 pm67 °FPassing clouds.3 mph29%29.76 "Hg10 mi
8:53 pm65 °FPassing clouds.7 mph31%29.76 "Hg10 mi
7:53 pm69 °FPassing clouds.8 mph26%29.76 "Hg10 mi
6:53 pm74 °FPartly sunny.6 mph21%29.75 "Hg10 mi
5:53 pm75 °FPartly sunny.3 mph19%29.75 "Hg10 mi
4:53 pm76 °FSunny.3 mph19%29.75 "Hg10 mi
3:53 pm77 °FPartly sunny.N/A18%29.76 "Hg10 mi
2:53 pm78 °FPassing clouds.9 mph19%29.76 "Hg10 mi
1:53 pm76 °FSunny.3 mph21%29.79 "Hg10 mi
11:53 am72 °FPassing clouds.10 mph27%29.85 "Hg10 mi
10:53 am70 °FSunny.N/A29%29.87 "Hg10 mi
9:53 am66 °FSunny.No wind34%29.90 "Hg10 mi
8:53 am59 °FScattered clouds.8 mph46%29.91 "Hg10 mi
7:53 am51 °FPassing clouds.6 mph63%29.92 "Hg10 mi
6:53 am43 °FScattered clouds.3 mph82%29.92 "Hg10 mi
5:53 am40 °FPassing clouds.8 mph83%29.92 "Hg10 mi
4:53 am37 °FPassing clouds.5 mph86%29.92 "Hg10 mi
3:53 am37 °FClear.3 mph86%29.91 "Hg10 mi
2:53 am38 °FClear.6 mph86%29.91 "Hg10 mi
1:53 am39 °FPassing clouds.5 mph86%29.94 "Hg10 mi
12:53 am40 °FClear.6 mph83%29.98 "Hg10 mi
Weather by CustomWeather, © 2019

See weather overview